Regional Weather Roundup
Issued by NWS

Home | Current Version | Previous Version | Text Only | Print | Product List | Glossary Off
Versions: 1 2 3 4 5 6 7 8 9 10 11 12 13 14 15 16 17 18 19 20 21 22 23 24 25 26 27 28 29 30 31 32 33 34 35 36 37 38 39 40 41 42 43 44 45 46 47 48 49 50

000
ASUS43 KDTX 300510
RWRMI
MICHIGAN HOURLY REGIONAL WEATHER ROUNDUP
NATIONAL WEATHER SERVICE DETROIT/PONTIAC MI
100 AM EDT TUE JUN 30 2015

NOTE: "FAIR" INDICATES FEW OR NO CLOUDS BELOW 12,000 FEET WITH NO
SIGNIFICANT WEATHER AND/OR OBSTRUCTION TO VISIBILITY.

MIZ047>049-052>055-059>063-066>070-074>076-081>083-300600-
SOUTHEAST LOWER MICHIGAN

CITY           SKY/WX    TMP DP  RH WIND       PRES   REMARKS
ADRIAN         CLOUDY    63  59  87 CALM      29.83F
ALMA           CLEAR     59  56  89 CALM      29.83F
ANN ARBOR      CLOUDY    64  58  80 S6        29.82F
BAD AXE        CLEAR     60  53  79 CALM      29.85F
CARO           CLEAR     56  55  94 CALM      29.84S
DETROIT CITY   CLOUDY    66  59  78 E7        29.83F
DETROIT        LGT RAIN  66  58  75 E5        29.83F
FLINT          PTCLDY    61  55  81 SE3       29.83F
GROSSE ILE       N/A     64  61  88 E6        29.81F
HILLSDALE      CLOUDY    62  62 100 E3        29.83S
HOWELL         MOCLDY    59  57  93 CALM      29.83F

CITY           SKY/WX    TMP DP  RH WIND       PRES   REMARKS
JACKSON        MOCLDY    61  58  90 CALM      29.83F
LAMBERTVILLE   CLOUDY    65  59  81 CALM      29.82F
LANSING        CLEAR     60  56  86 E3        29.83F
LAPEER         FAIR      55  53  94 CALM      29.84F
MASON          MOCLDY    60  58  93 CALM      29.82F
MONROE         LGT RAIN  63  61  93 CALM      29.81F
MT. CLEMENS    CLOUDY    64  61  88 E5        29.82F
PONTIAC        CLOUDY    64  57  78 E3        29.83F
PORT HOPE        N/A     63  54  72 VRB3      29.83F
PORT HURON     CLEAR     55  55 100 CALM      29.85F FOG
TRI CITIES     CLEAR     64  55  72 S7        29.83F
MIDLAND        FAIR      59  56  92 SE3       29.82S
TROY           CLOUDY    67  58  72 E3        29.85F
SAGINAW HB     CLEAR     59  54  82 SE3       29.83S
$$
MIZ043>046-050>051-056>058-064>065-071>073-077>080-300600-
SOUTHWEST LOWER MICHIGAN

CITY           SKY/WX    TMP DP  RH WIND       PRES   REMARKS
BATTLE CREEK   CLOUDY    65  57  75 S6        29.83F
BENTON HARBOR  CLEAR     60  57  89 SE6       29.81S
BIG RAPIDS     CLEAR     58  55  87 CALM      29.81F
COLDWATER      CLOUDY    61  58  91 CALM      29.83S
FREMONT        FAIR      60  60  99 SE3       29.80F
HOLLAND        CLEAR     60  57  89 S3        29.82S
GRAND RAPIDS   CLEAR     61  58  90 CALM      29.82F
IONIA          FAIR      58  56  95 CALM      29.81F
KALAMAZOO      CLOUDY    63  57  81 S5        29.82F
LUDINGTON      CLEAR     62  58  88 CALM      29.79F
MARSHALL       PTCLDY    58  57  96 CALM      29.82S
MOUNT PLEASANT CLEAR     62  56  81 SE3       29.82S
MUSKEGON       PTCLDY    63  59  87 S6        29.80F
SOUTH HAVEN    CLEAR     59  57  92 CALM      29.81S
$$
MIZ016>042-300600-
NORTHERN LOWER MICHIGAN

CITY           SKY/WX    TMP DP  RH WIND       PRES   REMARKS
ALPENA         CLEAR     64  54  69 S5        29.82S
BEAVER ISLAND  PTCLDY    61  58  90 SW5       29.79F
BELLAIRE       PTCLDY    62  57  82 CALM      29.79F
CADILLAC       PTCLDY    57  55  91 CALM      29.82S
CHARLEVOIX     PTCLDY    65  56  75 S3        29.82S
FRANKFORT      PTCLDY    61  55  78 CALM      29.79S
GAYLORD        MOCLDY    63  58  83 S6        29.82F
GRAYLING       PTCLDY    53  51  94 CALM      29.83F
HARBOR SPRINGS CLOUDY    62  55  76 CALM      29.79F
HOUGHTON LAKE  CLEAR     57  55  93 CALM      29.83F
MANISTEE       PTCLDY   N/A N/A N/A E3        29.79S
OSCODA         CLEAR     59  56  88 SE5       29.82F
PELLSTON       CLOUDY    60  54  80 CALM      29.80S
ROGERS CITY    MOCLDY    60  54  79 SW3       29.81F
TRAVERSE CITY  PTCLDY    63  59  87 S3        29.77F
$$
MIZ007>008-015-300600-
EASTERN UPPER MICHIGAN

CITY           SKY/WX    TMP DP  RH WIND       PRES   REMARKS
KINROSS        PTCLDY    61  52  72 S3        29.79S
MACKINAC ISLAN PTCLDY    62  53  72 S5        29.79S
NEWBERRY       PTCLDY    59  57  91 S8        29.77S
S. S. MARIE    MOCLDY    62  53  72 CALM      29.79S
MUNISING         N/A     62  60  93 NW3       29.76R
$$
MIZ004>006-011>014-085-300600-
CENTRAL UPPER MICHIGAN

CITY           SKY/WX    TMP DP  RH WIND       PRES   REMARKS
MANISTIQUE     MOCLDY    59  57  95 S7        29.77R FOG
ESCANABA       CLOUDY    63  57  82 CALM      29.77R
MENOMINEE      CLOUDY    64  61  88 N5        29.75S
SAWYER-GWINN   DRIZZLE   60  58  94 CALM      29.78R
$$
MIZ001>003-009>011-084-300600-
WESTERN UPPER MICHIGAN

CITY           SKY/WX    TMP DP  RH WIND       PRES   REMARKS
IRON MOUNTAIN  CLOUDY    61  59  93 CALM      29.77S
HOUGHTON       FOG       54  53  97 N17       29.81R VSB 1/2
COPPER HARBOR    N/A     50  49  96 N10       29.80R
IRONWOOD       CLOUDY    57  57 100 CALM      29.82R
$$

ABBREVIATIONS USED IN REMARKS
   TC - TEMPERATURE IN CELSIUS
  WCI - WIND CHILL INDEX
   HX - HEAT INDEX
  VSB - VISIBILITY



USA.gov is the U.S. government's official web portal to all federal, state and local government web resources and services.